TimeEST,TemperatureF,Dew PointF,Humidity,Sea Level PressureIn,VisibilityMPH,Wind Direction,Wind SpeedMPH,Gust SpeedMPH,PrecipitationIn,Events,Conditions,WindDirDegrees,DateUTC
12:53 AM,17.1,-0.9,45,30.33,10.0,Variable,3.5,-,N/A,,Clear,0,2013-02-10 05:53:00
1:53 AM,17.1,-2.0,43,30.34,10.0,NNW,5.8,-,N/A,,Clear,330,2013-02-10 06:53:00
2:53 AM,16.0,-4.0,41,30.35,10.0,Calm,Calm,-,N/A,,Clear,0,2013-02-10 07:53:00
3:53 AM,16.0,-5.1,39,30.37,10.0,West,5.8,-,N/A,,Clear,280,2013-02-10 08:53:00
4:53 AM,12.9,-5.1,45,30.38,10.0,WSW,4.6,-,N/A,,Clear,240,2013-02-10 09:53:00
5:53 AM,12.9,-6.0,43,30.40,10.0,Calm,Calm,-,N/A,,Clear,0,2013-02-10 10:53:00
6:53 AM,7.0,-2.9,64,30.43,10.0,Calm,Calm,-,N/A,,Clear,0,2013-02-10 11:53:00
7:53 AM,10.0,-2.9,56,30.45,10.0,Calm,Calm,-,N/A,,Clear,0,2013-02-10 12:53:00
8:53 AM,18.0,-0.9,44,30.44,10.0,East,4.6,-,N/A,,Clear,100,2013-02-10 13:53:00
9:53 AM,24.1,-4.0,29,30.47,10.0,WNW,6.9,-,N/A,,Clear,300,2013-02-10 14:53:00
10:53 AM,27.0,-2.0,29,30.47,10.0,Variable,3.5,-,N/A,,Clear,0,2013-02-10 15:53:00
11:53 AM,28.9,-0.9,28,30.45,10.0,WNW,4.6,-,N/A,,Clear,300,2013-02-10 16:53:00
12:53 PM,30.9,-0.0,27,30.42,10.0,Variable,3.5,-,N/A,,Clear,0,2013-02-10 17:53:00
1:53 PM,34.0,-0.9,23,30.40,10.0,Calm,Calm,-,N/A,,Clear,0,2013-02-10 18:53:00
2:53 PM,35.1,3.9,27,30.41,10.0,West,3.5,-,N/A,,Clear,260,2013-02-10 19:53:00
3:53 PM,36.0,-0.9,21,30.37,10.0,Calm,Calm,-,N/A,,Clear,0,2013-02-10 20:53:00
4:53 PM,30.0,12.0,47,30.38,10.0,Calm,Calm,-,N/A,,Clear,0,2013-02-10 21:53:00
5:53 PM,25.0,12.9,60,30.39,9.0,Calm,Calm,-,N/A,,Clear,0,2013-02-10 22:53:00
6:53 PM,19.9,10.9,68,30.39,10.0,Calm,Calm,-,N/A,,Clear,0,2013-02-10 23:53:00
7:53 PM,17.1,10.0,74,30.40,10.0,Calm,Calm,-,N/A,,Clear,0,2013-02-11 00:53:00
8:53 PM,14.0,7.0,74,30.38,10.0,SW,3.5,-,N/A,,Clear,230,2013-02-11 01:53:00
9:53 PM,14.0,8.1,77,30.38,10.0,Calm,Calm,-,N/A,,Clear,0,2013-02-11 02:53:00
10:53 PM,17.1,10.0,74,30.36,10.0,Calm,Calm,-,N/A,,Clear,0,2013-02-11 03:53:00
11:53 PM,19.9,10.9,68,30.35,10.0,Calm,Calm,-,N/A,,Clear,0,2013-02-11 04:53:00